Time,TemperatureF,DewpointF,PressureIn,WindDirection,WindDirectionDegrees,WindSpeedMPH,WindSpeedGustMPH,Humidity,HourlyPrecipIn,Conditions,Clouds,dailyrainin,SoftwareType,DateUTC
2013-04-06 00:29:00,54.1,48.4,29.90,SSE,157,6.3,-999.0,81,-99.99,,,0.00,Acu-Link.com,2013-04-06 05:29:00,
2013-04-06 00:44:00,54.3,48.3,29.90,SSE,157,4.2,-999.0,80,-99.99,,,0.00,Acu-Link.com,2013-04-06 05:44:00,
2013-04-06 00:59:00,54.1,48.1,29.89,SSE,157,4.7,-999.0,80,-99.99,,,0.00,Acu-Link.com,2013-04-06 05:59:00,
2013-04-06 01:14:00,54.1,48.4,29.89,SSE,157,4.7,-999.0,81,-99.99,,,0.00,Acu-Link.com,2013-04-06 06:14:00,
2013-04-06 01:29:00,53.6,47.9,29.89,SSE,157,2.7,-999.0,81,-99.99,,,0.00,Acu-Link.com,2013-04-06 06:29:00,
2013-04-06 01:44:00,52.7,48.0,29.89,SSE,157,4.2,-999.0,84,-99.99,,,0.00,Acu-Link.com,2013-04-06 06:44:00,
2013-04-06 01:59:00,52.5,47.8,29.88,SSE,157,3.7,-999.0,84,-99.99,,,0.00,Acu-Link.com,2013-04-06 06:59:00,
2013-04-06 02:14:00,53.1,48.1,29.88,South,180,7.3,-999.0,83,-99.99,,,0.00,Acu-Link.com,2013-04-06 07:14:00,
2013-04-06 02:45:00,54.0,48.6,29.87,South,180,6.3,-999.0,82,-99.99,,,0.00,Acu-Link.com,2013-04-06 07:45:00,
2013-04-06 03:00:00,54.1,48.7,29.86,SE,135,4.7,-999.0,82,-99.99,,,0.00,Acu-Link.com,2013-04-06 08:00:00,
2013-04-06 03:15:00,54.1,48.7,29.86,South,180,4.7,-999.0,82,-99.99,,,0.00,Acu-Link.com,2013-04-06 08:15:00,
2013-04-06 03:30:00,53.6,48.6,29.86,South,180,4.7,-999.0,83,-99.99,,,0.00,Acu-Link.com,2013-04-06 08:30:00,
2013-04-06 03:46:00,53.4,48.4,29.86,South,180,3.2,-999.0,83,-99.99,,,0.00,Acu-Link.com,2013-04-06 08:46:00,
2013-04-06 04:01:00,52.9,48.5,29.86,South,180,2.2,-999.0,85,-99.99,,,0.00,Acu-Link.com,2013-04-06 09:01:00,
2013-04-06 04:46:00,51.8,48.4,29.85,South,180,3.7,-999.0,88,-99.99,,,0.00,Acu-Link.com,2013-04-06 09:46:00,
2013-04-06 05:01:00,51.1,48.0,29.84,South,180,3.7,-999.0,89,-99.99,,,0.00,Acu-Link.com,2013-04-06 10:01:00,
2013-04-06 05:32:00,50.2,47.7,29.84,South,180,2.2,-999.0,91,-99.99,,,0.00,Acu-Link.com,2013-04-06 10:32:00,
2013-04-06 05:47:00,49.6,47.4,29.85,South,180,1.1,-999.0,92,-99.99,,,0.00,Acu-Link.com,2013-04-06 10:47:00,
2013-04-06 06:02:00,49.8,47.0,29.85,South,180,2.7,-999.0,90,-99.99,,,0.00,Acu-Link.com,2013-04-06 11:02:00,
2013-04-06 06:17:00,50.4,47.3,29.84,South,180,3.7,-999.0,89,-99.99,,,0.00,Acu-Link.com,2013-04-06 11:17:00,
2013-04-06 06:32:00,51.1,47.4,29.84,South,180,5.8,-999.0,87,-99.99,,,0.00,Acu-Link.com,2013-04-06 11:32:00,
2013-04-06 06:47:00,51.6,47.2,29.84,South,180,5.8,-999.0,85,-99.99,,,0.00,Acu-Link.com,2013-04-06 11:47:00,
2013-04-06 07:02:00,51.4,46.7,29.86,South,180,5.8,-999.0,84,-99.99,,,0.00,Acu-Link.com,2013-04-06 12:02:00,
2013-04-06 07:18:00,51.3,46.6,29.86,South,180,5.3,-999.0,84,-99.99,,,0.00,Acu-Link.com,2013-04-06 12:18:00,
2013-04-06 07:33:00,51.4,46.7,29.87,South,180,3.2,-999.0,84,-99.99,,,0.00,Acu-Link.com,2013-04-06 12:33:00,
2013-04-06 07:48:00,51.3,46.9,29.86,South,180,5.8,-999.0,85,-99.99,,,0.00,Acu-Link.com,2013-04-06 12:48:00,
2013-04-06 08:03:00,51.4,47.0,29.86,South,180,4.2,-999.0,85,-99.99,,,0.00,Acu-Link.com,2013-04-06 13:03:00,
2013-04-06 08:33:00,55.2,49.5,29.86,SSW,202,11.9,-999.0,81,-99.99,,,0.00,Acu-Link.com,2013-04-06 13:33:00,
2013-04-06 09:04:00,56.1,51.0,29.87,South,180,9.4,-999.0,83,-99.99,,,0.00,Acu-Link.com,2013-04-06 14:04:00,
2013-04-06 09:19:00,57.6,51.8,29.86,SW,225,13.0,-999.0,81,-99.99,,,0.00,Acu-Link.com,2013-04-06 14:19:00,
2013-04-06 09:34:00,58.5,52.4,29.86,SW,225,8.9,-999.0,80,-99.99,,,0.00,Acu-Link.com,2013-04-06 14:34:00,
2013-04-06 09:49:00,60.1,52.5,29.86,SSW,202,8.3,-999.0,76,-99.99,,,0.00,Acu-Link.com,2013-04-06 14:49:00,
2013-04-06 10:04:00,60.4,52.4,29.85,SSE,157,14.5,-999.0,75,-99.99,,,0.00,Acu-Link.com,2013-04-06 15:04:00,
2013-04-06 10:19:00,61.7,53.0,29.86,SSW,202,9.9,-999.0,73,-99.99,,,0.00,Acu-Link.com,2013-04-06 15:19:00,
2013-04-06 10:34:00,63.1,53.5,29.85,South,180,13.5,-999.0,71,-99.99,,,0.00,Acu-Link.com,2013-04-06 15:34:00,
2013-04-06 10:49:00,64.6,53.8,29.86,SSE,157,10.9,-999.0,68,-99.99,,,0.00,Acu-Link.com,2013-04-06 15:49:00,
2013-04-06 11:05:00,65.3,54.1,29.85,SSE,157,17.1,-999.0,67,-99.99,,,0.00,Acu-Link.com,2013-04-06 16:05:00,
2013-04-06 11:20:00,66.2,54.5,29.85,South,180,9.9,-999.0,66,-99.99,,,0.00,Acu-Link.com,2013-04-06 16:20:00,
2013-04-06 11:35:00,67.8,54.7,29.85,SSE,157,14.5,-999.0,63,-99.99,,,0.00,Acu-Link.com,2013-04-06 16:35:00,
2013-04-06 11:50:00,67.3,53.4,29.84,SSW,202,11.4,-999.0,61,-99.99,,,0.00,Acu-Link.com,2013-04-06 16:50:00,
2013-04-06 12:20:00,69.6,54.2,29.84,South,180,6.8,-999.0,58,-99.99,,,0.00,Acu-Link.com,2013-04-06 17:20:00,
2013-04-06 12:35:00,70.3,54.3,29.83,South,180,13.0,-999.0,57,-99.99,,,0.00,Acu-Link.com,2013-04-06 17:35:00,
2013-04-06 12:50:00,71.1,54.6,29.83,SSW,202,9.4,-999.0,56,-99.99,,,0.00,Acu-Link.com,2013-04-06 17:50:00,
2013-04-06 13:05:00,72.1,55.0,29.82,SW,225,7.8,-999.0,55,-99.99,,,0.00,Acu-Link.com,2013-04-06 18:05:00,
2013-04-06 13:21:00,72.1,55.0,29.81,SSW,202,12.5,-999.0,55,-99.99,,,0.00,Acu-Link.com,2013-04-06 18:21:00,
2013-04-06 14:21:00,76.1,56.6,29.78,SW,225,9.9,-999.0,51,-99.99,,,0.00,Acu-Link.com,2013-04-06 19:21:00,
2013-04-06 14:36:00,75.7,56.8,29.77,South,180,12.5,-999.0,52,-99.99,,,0.00,Acu-Link.com,2013-04-06 19:36:00,
2013-04-06 14:51:00,76.8,57.3,29.76,South,180,10.9,-999.0,51,-99.99,,,0.00,Acu-Link.com,2013-04-06 19:51:00,
2013-04-06 15:06:00,76.5,57.0,29.76,SSW,202,15.0,-999.0,51,-99.99,,,0.00,Acu-Link.com,2013-04-06 20:06:00,
2013-04-06 15:37:00,76.8,56.7,29.74,SSW,202,9.4,-999.0,50,-99.99,,,0.00,Acu-Link.com,2013-04-06 20:37:00,
2013-04-06 15:52:00,77.2,57.1,29.74,South,180,9.9,-999.0,50,-99.99,,,0.00,Acu-Link.com,2013-04-06 20:52:00,
2013-04-06 16:22:00,78.4,57.6,29.72,SSE,157,5.8,-999.0,49,-99.99,,,0.00,Acu-Link.com,2013-04-06 21:22:00,
2013-04-06 16:37:00,77.5,57.4,29.72,SSW,202,14.0,-999.0,50,-99.99,,,0.00,Acu-Link.com,2013-04-06 21:37:00,
2013-04-06 16:52:00,77.9,57.7,29.71,South,180,7.8,-999.0,50,-99.99,,,0.00,Acu-Link.com,2013-04-06 21:52:00,
2013-04-06 17:08:00,77.5,57.4,29.71,SSW,202,11.9,-999.0,50,-99.99,,,0.00,Acu-Link.com,2013-04-06 22:08:00,
2013-04-06 17:23:00,78.4,58.2,29.71,SSE,157,11.9,-999.0,50,-99.99,,,0.00,Acu-Link.com,2013-04-06 22:23:00,
2013-04-06 17:38:00,77.4,57.8,29.70,SSW,202,7.8,-999.0,51,-99.99,,,0.00,Acu-Link.com,2013-04-06 22:38:00,
2013-04-06 17:53:00,77.7,58.1,29.70,SSE,157,10.9,-999.0,51,-99.99,,,0.00,Acu-Link.com,2013-04-06 22:53:00,
2013-04-06 18:08:00,77.5,57.9,29.69,South,180,13.5,-999.0,51,-99.99,,,0.00,Acu-Link.com,2013-04-06 23:08:00,
2013-04-06 18:23:00,77.2,57.7,29.69,South,180,9.4,-999.0,51,-99.99,,,0.00,Acu-Link.com,2013-04-06 23:23:00,
2013-04-06 18:39:00,77.2,57.7,29.69,South,180,11.9,-999.0,51,-99.99,,,0.00,Acu-Link.com,2013-04-06 23:39:00,
2013-04-06 19:10:00,74.7,57.9,29.69,South,180,7.8,-999.0,56,-99.99,,,0.00,Acu-Link.com,2013-04-07 00:10:00,
2013-04-06 19:40:00,73.0,58.3,29.69,SSE,157,6.3,-999.0,60,-99.99,,,0.00,Acu-Link.com,2013-04-07 00:40:00,
2013-04-06 19:55:00,71.6,58.8,29.70,SSE,157,6.3,-999.0,64,-99.99,,,0.00,Acu-Link.com,2013-04-07 00:55:00,
2013-04-06 20:10:00,71.1,59.2,29.71,SSE,157,6.8,-999.0,66,-99.99,,,0.00,Acu-Link.com,2013-04-07 01:10:00,
2013-04-06 20:25:00,70.3,58.8,29.71,SE,135,8.9,-999.0,67,-99.99,,,0.00,Acu-Link.com,2013-04-07 01:25:00,
2013-04-06 20:41:00,69.6,59.0,29.71,South,180,3.7,-999.0,69,-99.99,,,0.00,Acu-Link.com,2013-04-07 01:41:00,
2013-04-06 20:56:00,68.9,58.7,29.72,South,180,4.7,-999.0,70,-99.99,,,0.00,Acu-Link.com,2013-04-07 01:56:00,
2013-04-06 21:41:00,66.9,58.3,29.73,SSE,157,4.2,-999.0,74,-99.99,,,0.00,Acu-Link.com,2013-04-07 02:41:00,
2013-04-06 21:56:00,66.6,58.4,29.74,ESE,112,6.3,-999.0,75,-99.99,,,0.00,Acu-Link.com,2013-04-07 02:56:00,
2013-04-06 22:11:00,66.2,58.4,29.74,SSE,157,5.8,-999.0,76,-99.99,,,0.00,Acu-Link.com,2013-04-07 03:11:00,
2013-04-06 22:26:00,65.7,58.3,29.75,SE,135,5.3,-999.0,77,-99.99,,,0.00,Acu-Link.com,2013-04-07 03:26:00,
2013-04-06 22:41:00,64.9,57.9,29.75,ESE,112,6.8,-999.0,78,-99.99,,,0.00,Acu-Link.com,2013-04-07 03:41:00,
2013-04-06 22:57:00,64.8,58.1,29.76,SE,135,7.8,-999.0,79,-99.99,,,0.00,Acu-Link.com,2013-04-07 03:57:00,
2013-04-06 23:27:00,63.7,58.1,29.74,SE,135,6.8,-999.0,82,-99.99,,,0.00,Acu-Link.com,2013-04-07 04:27:00,
2013-04-06 23:42:00,63.3,57.7,29.74,SSE,157,4.7,-999.0,82,-99.99,,,0.00,Acu-Link.com,2013-04-07 04:42:00,
2013-04-06 23:57:00,63.0,57.8,29.75,South,180,5.3,-999.0,83,-99.99,,,0.00,Acu-Link.com,2013-04-07 04:57:00,